Regional Weather Roundup
Issued by NWS Pendleton, OR

Home | Current Version | Previous Version | Text Only | Print | Product List | Glossary On
Versions: 1 2 3 4 5 6 7 8 9 10 11 12 13 14 15 16 17 18 19 20 21 22 23 24 25 26 27 28 29 30 31 32 33 34 35 36 37 38 39 40 41 42 43 44 45 46 47 48 49 50
647
ASUS46 KPDT 211610
RWRPDT
PENDLETON REGIONAL WEATHER ROUNDUP
NATIONAL WEATHER SERVICE PENDLETON OREGON
900 AM PDT THU SEP 21 2017

NOTE: FAIR INDICATES FEW OR NO CLOUDS BELOW 12,000 FEET WITH NO
SIGNIFICANT WEATHER AND/OR OBSTRUCTIONS TO VISIBILITY.

# INDICATES UNOFFICIAL STATION AND DATA

WAZ520-211710-
EAST SLOPES OF WASHINGTON CASCADES

CITY            SKY/WX      TMP DP  RH  WIND    PRES   REMARKS
#BULLFROG       N/A         48  41  77  W3      N/A
#CLE ELUM HS    N/A         47  40  76  SW1     29.83R
#CLE ELUM LAKE  N/A         44  39  82  CALM    29.87R
#EASTON DOT     N/A         44  40  86  CALM    N/A
#ELK HTS DOT    N/A         48  48  100 CALM    N/A
#GLENWOOD       N/A         35  34  96  CALM    29.92S
#NELSON 3SW     N/A         43  39  86  CALM    30.07R
#NILE           N/A         41  38  89  CALM    29.17R
#TEANAWAY 4NE   N/A         43  40  89  CALM    N/A
#TROUT LAKE 1NE N/A         41  40  96  CALM    29.91S
#TROUT LAKE 1E  N/A         42  40  93  CALM    29.90R
$$

WAZ521-211710-
SIMCOE HIGHLANDS

CITY            SKY/WX      TMP DP  RH  WIND    PRES   REMARKS
#BICKLETON HS   N/A         48  38  68  N9      29.83R
#CENTERVILLE 1SWN/A         41  38  89  CALM    29.88R
#GOLDENDALE 1NE N/A         43  37  79  CALM    N/A
#GOLDENDALE 4W  N/A         42  36  79  CALM    29.93R
#GOODNOE HILLS  N/A         50  46  86  W8      N/A
#LYLE 6NE       N/A         46  44  93  SW3     29.91R
#PITT 4SE       N/A         42  41  96  W6      29.93R
$$

WAZ026-211710-
KITTITAS VALLEY

CITY            SKY/WX      TMP DP  RH  WIND    PRES   REMARKS
ELLENSBURG AP   CLOUDY      49  40  71  CALM    29.87R
#ELLENSBURG CWU N/A         46  40  79  CALM    29.82R
#ELLENSBURG 3NE N/A         45  40  82  CALM    27.96R
#ELLENSBURG 1E  N/A         45  40  82  CALM    29.92R
#KITTITAS 3S    N/A         45  41  86  CALM    29.87R
#MANASTASH RDG  N/A         46  46  100 N5      N/A
#ROCKY CYN DOT  N/A         50  41  71  NW6     N/A
#RYEGRASS DOT   N/A         44  39  82  S5      N/A
$$

WAZ027-211710-
YAKIMA VALLEY

CITY            SKY/WX      TMP DP  RH  WIND    PRES   REMARKS
YAKIMA AIRPORT  CLOUDY      47  41  79  SW3     29.89R
YAKIMA-VAGABOND MOCLDY      45  38  76  CALM    29.86R
#DONALD 2NE     N/A         47  28  47  W2      29.88R
#GRANDVIEW      N/A         47  42  83  CALM    29.91R
#MABTON         N/A         44  42  93  CALM    29.88R
#MOXEE 2E       N/A         44  N/A N/A CALM    29.88R
#NACHES 2SW     N/A         48  39  71  CALM    29.88R
#OUTLOOK DOT    N/A         47  43  86  CALM    29.85R
#PARKER DOT     N/A         46  40  79  CALM    29.87R
#TERRACE HTS    N/A         45  40  82  CALM    29.85R
#TOPPENISH      N/A         43  40  89  CALM    29.81R
#I82 S UMTANUM RN/A         47  38  71  E2      N/A
#UNION GAP DOT  N/A         45  40  82  N2      29.91R
#W YAKIMA       N/A         46  38  73  N2      29.89R
#WHITE SWAN 5E  N/A         44  42  93  CALM    29.91R
#WILEY CITY 3W  N/A         45  37  73  CALM    29.85R
#ZILLAH DOT     N/A         44  41  89  SW1     N/A
$$

WAZ028-211710-
LOWER COLUMBIA BASIN...WASHINGTON

CITY            SKY/WX      TMP DP  RH  WIND    PRES   REMARKS
PASCO           MOCLDY      50  45  83  CALM    29.89R
PROSSER AWOS    N/A         45  41  86  CALM    29.91S
RICHLAND AWOS   MOCLDY      49  44  83  CALM    29.89R
#BENTON CITY    N/A         46  41  83  CALM    29.80R
#CONNELL 5N     N/A         42  41  96  CALM    29.88S
#CONNELL 5NW    N/A         42  41  96  CALM    29.83S
#ELTOPIA 6NW    N/A         43  42  96  CALM    28.85R
#KAHLOTUS       N/A         46  43  89  CALM    29.88R
#KENNEWICK 3S   N/A         50  44  80  S3      29.89R
#PATERSON       N/A         46  43  89  CALM    29.88R
#PROSSER DOT    N/A         44  43  96  CALM    29.89R
#SAGEMOOR 2W    N/A         44  42  93  CALM    29.75R
#TOUCHET 2S     N/A         50  44  80  CALM    29.87S
#WEST PASCO     N/A         50  48  93  CALM    29.87R
$$

WAZ029-211710-
FOOTHILLS OF THE BLUES...WASHINGTON

CITY            SKY/WX      TMP DP  RH  WIND    PRES   REMARKS
WALLA WALLA AP  PTCLDY      52  41  66  S13     29.88S
#CLYDE 6NW      N/A         47  42  83  S12     29.88R WCI 42
#DAYTON SCHOOL  N/A         48  37  65  SE2     29.89R
#PLEASANT VIEW 1N/A         46  42  86  S10     29.91S
#PRESCOTT       N/A         51  45  80  CALM    29.89R
#WHITMAN COLLEGEN/A         52  42  69  S3      29.93S
#WAITSBURG 6SSE N/A         50  39  66  S5      29.89S
#WALLA WALLA 5E N/A         51  44  77  S12     N/A
#WHITMAN MISSIONN/A         51  46  83  CALM    29.90S
$$

WAZ030-211710-
BLUE MOUNTAINS...WASHINGTON

CITY            SKY/WX      TMP DP  RH  WIND    PRES   REMARKS
#DIXIE 5SE      N/A         42  37  82  SW7     29.79R
$$

ORZ009-041-WAZ024-211710-
COLUMBIA RIVER GORGE

CITY            SKY/WX      TMP DP  RH  WIND    PRES   REMARKS
THE DALLES AP   CLOUDY      55  44  66  W9      29.89S
#CELILO DOT     N/A         55  42  61  SW3     N/A
#LYLE           N/A         52  46  80  W7      29.91R
#MARYHILL       N/A         51  42  71  N6      N/A
#MURDOCK        N/A         55  46  72  W12G24  29.85S
#RUFUS DOT      N/A         54  N/A N/A W8      N/A
#SMITHVILLE     N/A         54  47  77  N7      29.88R

$$

ORZ510-211710-
NORTH CENTRAL OREGON

CITY            SKY/WX      TMP DP  RH  WIND    PRES   REMARKS
#ANTELOPE       N/A         43  37  79  SW6     29.77S
#CHENOWITH 1W   N/A         45  43  93  W20     N/A    WCI 37
#COW CYN RST AREN/A         42  37  82  SW8     N/A
#DUFUR          N/A         46  40  79  CALM    29.86S
#DUFUR 9E       N/A         46  38  73  W7      29.94R
#GRASS VALLEY 1SN/A         44  39  82  SW7     29.91R
#KENT DOT       N/A         44  32  62  W12     N/A    WCI 38
#MAUPIN SCHOOL  N/A         42  38  86  CALM    29.96S
#MORO SCHOOL    N/A         49  44  83  W5      29.88S
#SHANIKO 4NW    N/A         40  35  82  SW7     29.87R
#TYGH VALLEY 2NEN/A         40  37  89  CALM    29.91S
#WAPANITIA AIRPON/A         46  39  76  W5      29.91S
#WASCO DOT      N/A         50  43  77  W3      N/A
#WASCO 5NE      N/A         49  43  80  W7      29.88S
$$

ORZ511-211710-
CENTRAL OREGON

CITY            SKY/WX      TMP DP  RH  WIND    PRES   REMARKS
BEND AIRPORT    SUNNY       45  34  65  SW6     29.90S
MADRAS AIRPORT  CLOUDY      N/A N/A N/A CALM    29.93R
PRINEVILLE AP   PTCLDY      41  34  76  CALM    29.91R
REDMOND AIRPORT PTCLDY      44  34  68  S3      29.90R
#ASHWOOD SCHOOL N/A         44  36  73  CALM    29.87R
#BEND 1SW       N/A         40  35  82  SW2     N/A
#BEND-AWBREY    N/A         40  36  85  SW3     29.91R
#BEND-KIM LN    N/A         40  33  76  CALM    29.86S
#CULVER         N/A         40  35  82  N1      29.81R
#CULVER 8W      N/A         47  31  53  CALM    29.91S
#LAKE BILLY CHINN/A         41  N/A N/A CALM    30.00F
#MADRAS 4S      N/A         42   5  21  CALM    N/A
#POWELL BUTTE   N/A         42  34  73  W2      29.86R
#PRINEVILLE     N/A         41  37  86  CALM    30.00R
#PRINEVILLE 3N  N/A         43  38  82  CALM    29.90R
#WARM SPRINGS   N/A         42  38  86  CALM    29.79S

$$


ORZ509-211710-
EAST SLOPES OF OREGON CASCADES

CITY            SKY/WX      TMP DP  RH  WIND    PRES   REMARKS
SISTERS AWOS    N/A         43  34  70  SW8     N/A
#CAMP SHERMAN   N/A         35  33  92  CALM    30.02S
#LA PINE 4NW    N/A         36  32  85  CALM    29.96R
#LAVA BUTTE DOT N/A         35  34  96  CALM    N/A
#SISTERS ODOT   N/A         40  31  70  CALM    N/A
#SISTERS 3N     N/A         43  34  70  W2      29.91S
#SUNRIVER       N/A         38  35  89  SW1     29.92S
#TUMALO 3W      N/A         41  33  73  CALM    29.80R
#WANOGA BUTTE D N/A         32  28  85  SW2     N/A

$$

ORZ044-211710-
LOWER COLUMBIA BASIN...OREGON

CITY            SKY/WX      TMP DP  RH  WIND    PRES   REMARKS
HERMISTON       PTCLDY      51  42  71  W7      29.89S
#BOARDMAN SCHOOLN/A         49  43  80  CALM    29.88S
#BOARDMAN 8SW   N/A         51  46  83  SW9     29.90R
#ECHO 8SW       N/A         53  43  69  W7      29.89S
#I-84 EX 198 DOTN/A         49  42  77  E6      N/A
#IONE SCHOOL    N/A         51  32  48  SW2     29.90R
#UMATILLA       N/A         49  41  74  CALM    29.82S
$$

ORZ507-211710-
NORTHERN FOOTHILLS OF THE BLUES

CITY            SKY/WX      TMP DP  RH  WIND    PRES   REMARKS
PENDLETON AIRPT CLOUDY      50  39  66  W8      29.89R
#ADAMS 3WNW     N/A         49  42  77  CALM    29.88S
#ATHENA         N/A         48  41  77  CALM    29.91S
#CAYUSE         N/A         50  41  71  SW5     29.88S
#HELIX SCHOOL   N/A         47  40  76  SW5     29.89R
#HELIX 3N       N/A         46  41  83  S8      29.86R
#HOLDMAN 5SE    N/A         47  42  83  CALM    29.88S
#HOLDMAN 6E     N/A         45  41  86  S1      29.70R
#M-F GROVE ELEM N/A         52  38  59  SW7     29.86R
#M-FREEWATER 5SEN/A         50  41  71  SW2     29.89R
#PENDLETON DNTN N/A         49  42  77  E2      29.89S
#PDT AQUATIC CTRN/A         50  42  74  CALM    29.87S
#PDT SUNRIDGE   N/A         51  42  71  CALM    29.91R
#PENDLETON 7NW  N/A         49  41  74  CALM    27.73F
#PILOT ROCK 1S  N/A         49  36  61  CALM    29.90R
#PILOT ROCK     N/A         51  41  68  CALM    29.91R
#TUTUILLA       N/A         48  42  80  CALM    29.93R
#UMAPINE 2E     N/A         53  43  69  SW3     29.86S
#WESTON SCHOOL  N/A         48  38  68  NW2     29.82S

$$

ORZ508-211710-
SOUTHERN FOOTHILLS OF THE BLUES

CITY            SKY/WX      TMP DP  RH  WIND    PRES   REMARKS
LEXINGTON       MOCLDY      50  39  66  S7      29.92R
#AJAX           N/A         45  32  60  W5      30.04R
#FOSSIL SCHOOL  N/A         46  37  71  W1      29.84R
#HEPPNER EOC    N/A         48  38  68  W7      29.83R
#HEPPNER 4NE    N/A         45  38  76  W7      29.88R
#LEXINGTON 2SE  N/A         51  40  66  W2      29.86R
#MIKKALO        N/A         50  37  61  W8      29.98S
#OLEX 4N        N/A         49  42  77  W7      29.88R
#RUGGS 5NE      N/A         44  37  76  W6      30.04S
#RUGGS 2SW      N/A         45  37  73  W5      29.91R

$$

ORZ502-503-211710-
BLUE MOUNTAINS

CITY            SKY/WX      TMP DP  RH  WIND    PRES   REMARKS
MEACHAM         CLOUDY      41  37  86  CALM    29.87R
#BATTLE MTN DOT N/A         37  32  82  CALM    N/A
#GRANITE        N/A         36  32  85  N1      29.77F
#GREENHORN 9SW  N/A         38  37  96  CALM    26.08S
#HEPPNER 15SE   N/A         39  35  85  CALM    29.79S
#LADD CYN SMT   N/A         39  37  92  CALM    N/A
#LADD CREEK ODOTN/A         39  37  92  W2      N/A
#LONG CREEK HS  N/A         41  39  93  CALM    N/A
#N POWDER DOT   N/A         41  37  86  NE1     N/A
#PIKES PEAK     N/A         39  35  85  N8      27.99S
#TOLLGATE       N/A         33  32  96  SW2     29.72S
#TROY SCHOOL    N/A         47  44  89  CALM    29.74S
#UKIAH          N/A         34  32  92  CALM    29.84R
#WESTON 4E      N/A         41  38  89  SW5     29.87R
$$

ORZ505-211710-
JOHN DAY BASIN

CITY            SKY/WX      TMP DP  RH  WIND    PRES   REMARKS
#JOHN DAY KJDY  N/A         44  N/A N/A CALM    28.96F
#ANTELOPE 9ESE  N/A         51  37  59  SW7     N/A
#DAYVILLE SCHOOLN/A         45  35  68  CALM    29.87R
#MITCHELL       N/A         44  41  89  CALM    30.06R
#MITCHELL 8NW   N/A         42  32  67  CALM    29.93S
#MONUMENT HS    N/A         46  39  76  CALM    29.86R
#MT. VERNON 5SE N/A         42  36  79  N1      29.82S
#SPRAY SCHOOL   N/A         49  N/A N/A CALM    N/A
$$

ORZ506-211710-
OCHOCO AND JOHN DAY HIGHLANDS

CITY            SKY/WX      TMP DP  RH  WIND    PRES   REMARKS
#HORSE RIDGE DO N/A         41  32  70  SE2     N/A
#PAULINA ODOT   N/A         38  32  79  E2      N/A
#PINE MTN OBS   N/A         30  28  92  CALM    N/A
#SENECA         N/A         39  N/A N/A CALM    N/A
#SENECA 9NW     N/A         35  31  85  CALM    29.87R
$$

ORZ049-211710-
GRANDE RONDE VALLEY

CITY            SKY/WX      TMP DP  RH  WIND    PRES   REMARKS
LA GRANDE       CLOUDY      45  39  79  N10     29.88S
#COVE           N/A         41  40  96  CALM    29.91S
#COVE SCHOOL    N/A         41  39  93  CALM    29.90S
#COVE 6NW       N/A         43  40  89  CALM    29.89S
#ELGIN 3N       N/A         44  43  96  CALM    30.28S
#ELGIN 1E       N/A         44  39  82  CALM    N/A
#IMBLER SCHOOL  N/A         42  40  93  CALM    29.85S
#ISLAND CITY 4N N/A         47  46  96  CALM    29.95S
#LA GRANDE-LEFFEN/A         44  40  86  N1      30.28R
#UNION 1S       N/A         43  40  89  CALM    29.89S
$$

ORZ050-211710-
WALLOWA COUNTY

CITY            SKY/WX      TMP DP  RH  WIND    PRES   REMARKS
JOSEPH AIRPORT  CLOUDY      41  36  82  N7      29.86S
#ENTERPRISE HS  N/A         40  37  89  CALM    29.75S
#IMNAHA SCHOOL  N/A         47  37  68  S2      29.88S
#IMNAHA 10S     N/A         43  34  70  SW5     29.86F
#JOSEPH         N/A         39  37  92  CALM    30.06S
#JOSEPH 3N      N/A         40  34  79  CALM    29.89S
#JOSEPH 3W      N/A         38  37  96  CALM    30.23S
#LOSTINE        N/A         38  35  89  CALM    29.70S
#LOSTINE 3SE    N/A         38  35  89  E1      29.91R
#MT HOWARD 8000 N/A         29  26  88  CALM    29.78S
#PROMISE 1S     N/A         40  36  85  W1      29.98R
#WALLOWA LAKE   N/A         39  37  92  NE1     29.87R
#WALLOWA SCHOOL N/A         40  38  92  CALM    29.85S



$$



USA.gov is the U.S. government's official web portal to all federal, state and local government web resources and services.